Terminal Aerodrome Forecast
Issued by NWS

Home | Current Version | Previous Version | Text Only | Print | Product List | Glossary On
Versions: 1 2 3 4 5 6 7 8 9 10 11 12 13 14 15 16 17 18 19 20 21
000
FTUS43 KDLH 021444 AAC
TAFHIB
TAF AMD
KHIB 021444Z 0215/0312 12010G20KT P6SM -TSRA SCT015CB BKN060
     FM021800 15009G15KT P6SM FEW050
     FM030100 13005KT 5SM BR SCT005=

USA.gov is the U.S. government's official web portal to all federal, state and local government web resources and services.